Cambridge, MD

6:30 AM EDT on October 22, 2017 (GMT -0400)
Cambridge-Dorchester

Weather History for KCGE - May, 2013

Change the Weather History Date:

Saturday, May 4, 2013

  Actual Average (KESN) Record (KESN)
Temperature  
Mean Temperature 53 °F -  
Max Temperature 64 °F 68 °F 89 °F (1965)
Min Temperature 42 °F 49 °F 33 °F (1957)
Degree Days  
Heating Degree Days 12    
Growing Degree Days 3 (Base 50)    
Moisture  
Dew Point 40 °F    
Average Humidity 64    
Maximum Humidity 87    
Minimum Humidity 37    
Precipitation  
Precipitation 0.00 in - - ()
Sea Level Pressure  
Sea Level Pressure 30.25 in    
Wind  
Wind Speed 7 mph (ENE)    
Max Wind Speed 15 mph    
Max Gust Speed 23 mph    
Visibility 10 miles    
Events      
Averages and records for this station are not official NWS values.
T = Trace of Precipitation, MM = Missing Value Source: NWS Daily Summary

Daily Weather History Graph

Daily Weather History Graph

Search for Another Location

Airport or City:

Trip Planner

Search our weather history database for the weather conditions in past years. The results will help you decide how hot, cold, wet, or windy it might be!

Date:

Astronomy

May. 04, 2013 Rise Set
Actual Time 6:03 AM EDT 7:59 PM EDT
Civil Twilight 5:34 AM EDT 8:28 PM EDT
Nautical Twilight 4:59 AM EDT 9:03 PM EDT
Astronomical Twilight 4:21 AM EDT 9:41 PM EDT
Moon 2:56 AM EDT (5/4) 2:58 PM EDT (5/4)
Length of Visible Light 14h 53m
Length of Day
13h 55m
Waning Crescent, 27% of the Moon is Illuminated
May 4
Waning Crescent
May 9
New
May 18
First Quarter
May 25
Full
May 31
Last Quarter

Hourly Weather History & Observations

Time (EDT) Temp. Windchill Dew Point Humidity Pressure Visibility Wind Dir Wind Speed Gust Speed Precip Events Conditions
12:08 AM 50.0 °F - 41.0 °F 71% 30.33 in 10.0 mi East 4.6 mph - N/A   Overcast
12:28 AM 50.0 °F - 41.0 °F 71% 30.33 in 10.0 mi East 6.9 mph - N/A   Overcast
12:48 AM 50.0 °F - 42.8 °F 76% 30.32 in 10.0 mi East 9.2 mph - N/A   Overcast
1:28 AM 50.0 °F - 42.8 °F 76% 30.31 in 10.0 mi East 4.6 mph - N/A   Overcast
1:48 AM 50.0 °F - 42.8 °F 76% 30.30 in 10.0 mi ENE 5.8 mph - N/A   Overcast
2:08 AM 50.0 °F - 44.6 °F 82% 30.29 in 10.0 mi NE 4.6 mph - N/A   Overcast
2:29 AM 50.0 °F - 44.6 °F 82% 30.28 in 10.0 mi ENE 6.9 mph - N/A   Overcast
2:49 AM 50.0 °F - 44.6 °F 82% 30.27 in 10.0 mi NE 5.8 mph - N/A   Overcast
3:09 AM 50.0 °F - 44.6 °F 82% 30.27 in 10.0 mi NE 8.1 mph - N/A   Overcast
3:29 AM 50.0 °F - 44.6 °F 82% 30.26 in 10.0 mi NE 6.9 mph - N/A   Overcast
3:49 AM 50.0 °F - 44.6 °F 82% 30.26 in 10.0 mi NE 3.5 mph - N/A   Overcast
4:09 AM 50.0 °F - 44.6 °F 82% 30.26 in 10.0 mi ENE 3.5 mph - N/A   Overcast
4:29 AM 48.2 °F - 42.8 °F 82% 30.26 in 10.0 mi ENE 4.6 mph - N/A   Mostly Cloudy
4:49 AM 46.4 °F - 42.8 °F 87% 30.26 in 10.0 mi Calm Calm - N/A   Scattered Clouds
5:09 AM 46.4 °F - 42.8 °F 87% 30.27 in 10.0 mi Calm Calm - N/A   Clear
5:29 AM 46.4 °F - 42.8 °F 87% 30.27 in 10.0 mi Calm Calm - N/A   Clear
5:49 AM 44.6 °F - 41.0 °F 87% 30.27 in 10.0 mi Calm Calm - N/A   Clear
6:09 AM 42.8 °F - 39.2 °F 87% 30.28 in 10.0 mi Calm Calm - N/A   Clear
6:29 AM 44.6 °F - 41.0 °F 87% 30.28 in 10.0 mi Calm Calm - N/A   Clear
6:49 AM 46.4 °F - 42.8 °F 87% 30.28 in 10.0 mi Calm Calm - N/A   Scattered Clouds
7:09 AM 46.4 °F 45.2 °F 42.8 °F 87% 30.29 in 10.0 mi NE 3.5 mph - N/A   Overcast
7:29 AM 50.0 °F - 44.6 °F 82% 30.29 in 10.0 mi NE 3.5 mph - N/A   Overcast
7:49 AM 50.0 °F - 44.6 °F 82% 30.29 in 10.0 mi NE 3.5 mph - N/A   Overcast
8:09 AM 50.0 °F - 42.8 °F 76% 30.29 in 10.0 mi NE 6.9 mph - N/A   Overcast
8:29 AM 50.0 °F - 42.8 °F 76% 30.29 in 10.0 mi NNE 9.2 mph - N/A   Overcast
8:49 AM 50.0 °F - 42.8 °F 76% 30.29 in 10.0 mi NE 5.8 mph - N/A   Overcast
9:09 AM 51.8 °F - 42.8 °F 71% 30.28 in 10.0 mi ENE 10.4 mph - N/A   Mostly Cloudy
9:29 AM 51.8 °F - 42.8 °F 71% 30.28 in 10.0 mi East 9.2 mph - N/A   Mostly Cloudy
9:49 AM 53.6 °F - 44.6 °F 72% 30.28 in 10.0 mi NE 8.1 mph - N/A   Scattered Clouds
10:09 AM 53.6 °F - 42.8 °F 67% 30.27 in 10.0 mi ENE 11.5 mph 17.3 mph N/A   Scattered Clouds
10:29 AM 55.4 °F - 44.6 °F 67% 30.27 in 10.0 mi East 9.2 mph - N/A   Clear
10:49 AM 55.4 °F - 42.8 °F 63% 30.27 in 10.0 mi East 9.2 mph - N/A   Clear
11:10 AM 57.2 °F - 42.8 °F 59% 30.26 in 10.0 mi NNE 11.5 mph 17.3 mph N/A   Scattered Clouds
11:30 AM 59.0 °F - 42.8 °F 55% 30.26 in 10.0 mi ENE 9.2 mph - N/A   Clear
11:50 AM 60.8 °F - 42.8 °F 52% 30.26 in 10.0 mi East 9.2 mph 16.1 mph N/A   Clear
12:10 PM 60.8 °F - 42.8 °F 52% 30.25 in 10.0 mi ENE 9.2 mph - N/A   Clear
12:30 PM 60.8 °F - 44.6 °F 55% 30.25 in 10.0 mi East 12.7 mph 16.1 mph N/A   Clear
12:50 PM 62.6 °F - 42.8 °F 48% 30.24 in 10.0 mi ENE 12.7 mph 16.1 mph N/A   Clear
1:10 PM 62.6 °F - 42.8 °F 48% 30.24 in 10.0 mi East 12.7 mph 21.9 mph N/A   Scattered Clouds
1:30 PM 62.6 °F - 44.6 °F 52% 30.24 in 10.0 mi East 6.9 mph 21.9 mph N/A   Scattered Clouds
1:50 PM 62.6 °F - 42.8 °F 48% 30.23 in 10.0 mi ENE 8.1 mph - N/A   Scattered Clouds
2:10 PM 64.4 °F - 42.8 °F 45% 30.23 in 10.0 mi ENE 10.4 mph 18.4 mph N/A   Clear
2:30 PM 62.6 °F - 42.8 °F 48% 30.23 in 10.0 mi ENE 11.5 mph 18.4 mph N/A   Clear
2:50 PM 62.6 °F - 42.8 °F 48% 30.22 in 10.0 mi ENE 5.8 mph 20.7 mph N/A   Clear
3:10 PM 64.4 °F - 41.0 °F 42% 30.22 in 10.0 mi NE 13.8 mph 18.4 mph N/A   Clear
3:30 PM 62.6 °F - 37.4 °F 39% 30.21 in 10.0 mi East 12.7 mph 21.9 mph N/A   Clear
3:50 PM 64.4 °F - 37.4 °F 37% 30.21 in 10.0 mi East 12.7 mph 19.6 mph N/A   Clear
4:10 PM 62.6 °F - 35.6 °F 37% 30.20 in 10.0 mi East 15.0 mph 21.9 mph N/A   Clear
4:30 PM 62.6 °F - 35.6 °F 37% 30.20 in 10.0 mi ENE 13.8 mph 23.0 mph N/A   Clear
4:50 PM 62.6 °F - 35.6 °F 37% 30.21 in 10.0 mi East 12.7 mph 21.9 mph N/A   Clear
5:10 PM 60.8 °F - 35.6 °F 39% 30.21 in 10.0 mi East 11.5 mph 23.0 mph N/A   Clear
5:30 PM 60.8 °F - 35.6 °F 39% 30.21 in 10.0 mi East 15.0 mph 21.9 mph N/A   Clear
5:50 PM 59.0 °F - 35.6 °F 42% 30.21 in 10.0 mi East 15.0 mph 21.9 mph N/A   Clear
6:10 PM 59.0 °F - 35.6 °F 42% 30.21 in 10.0 mi East 13.8 mph 20.7 mph N/A   Clear
6:30 PM 57.2 °F - 32.0 °F 38% 30.21 in 10.0 mi East 13.8 mph 21.9 mph N/A   Clear
6:50 PM 55.4 °F - 32.0 °F 41% 30.21 in 10.0 mi East 13.8 mph - N/A   Clear
7:09 PM 55.4 °F - 33.8 °F 44% 30.21 in 10.0 mi East 9.2 mph 17.3 mph N/A   Clear
7:30 PM 53.6 °F - 35.6 °F 51% 30.21 in 10.0 mi East 10.4 mph - N/A   Clear
7:50 PM 53.6 °F - 35.6 °F 51% 30.21 in 10.0 mi East 5.8 mph - N/A   Clear
8:11 PM 51.8 °F - 35.6 °F 54% 30.22 in 10.0 mi East 5.8 mph - N/A   Clear
8:31 PM 51.8 °F - 35.6 °F 54% 30.22 in 10.0 mi ENE 5.8 mph - N/A   Clear
8:51 PM 50.0 °F - 35.6 °F 58% 30.22 in 10.0 mi East 4.6 mph - N/A   Clear
9:11 PM 50.0 °F - 35.6 °F 58% 30.22 in 10.0 mi East 4.6 mph - N/A   Clear
9:31 PM 50.0 °F - 37.4 °F 62% 30.23 in 10.0 mi East 5.8 mph - N/A   Clear
9:51 PM 50.0 °F - 37.4 °F 62% 30.23 in 10.0 mi ENE 3.5 mph - N/A   Clear
10:11 PM 46.4 °F 45.2 °F 35.6 °F 66% 30.24 in 10.0 mi ENE 3.5 mph - N/A   Clear
10:31 PM 46.4 °F 44.3 °F 37.4 °F 71% 30.24 in 10.0 mi ENE 4.6 mph - N/A   Clear
10:51 PM 46.4 °F 44.3 °F 37.4 °F 71% 30.24 in 10.0 mi ENE 4.6 mph - N/A   Clear
11:31 PM 44.6 °F 43.1 °F 37.4 °F 76% 30.23 in 10.0 mi ENE 3.5 mph - N/A   Clear
11:51 PM 42.8 °F 41.1 °F 37.4 °F 81% 30.23 in 10.0 mi NE 3.5 mph - N/A   Clear